Time,TemperatureF,DewpointF,PressureIn,WindDirection,WindDirectionDegrees,WindSpeedMPH,WindSpeedGustMPH,Humidity,HourlyPrecipIn,Conditions,Clouds,dailyrainin,SoftwareType,DateUTC
2013-06-12 00:09:00,54.6,42.0,29.90,ENE,64,1.0,2.0,63,0.00,,,0.00,weatherlink.com 1.10,2013-06-12 07:09:00,
2013-06-12 00:24:00,54.3,39.0,29.90,East,79,0.0,2.0,56,0.00,,,0.00,weatherlink.com 1.10,2013-06-12 07:24:00,
2013-06-12 00:39:00,54.2,38.0,29.89,NE,37,0.0,1.0,55,0.00,,,0.00,weatherlink.com 1.10,2013-06-12 07:39:00,
2013-06-12 00:54:00,54.1,37.0,29.89,NNE,32,1.0,1.0,53,0.00,,,0.00,weatherlink.com 1.10,2013-06-12 07:54:00,
2013-06-12 01:09:00,54.0,37.0,29.90,ENE,63,0.0,2.0,53,0.00,,,0.00,weatherlink.com 1.10,2013-06-12 08:09:00,
2013-06-12 01:24:00,53.8,38.0,29.90,NE,41,0.0,1.0,55,0.00,,,0.00,weatherlink.com 1.10,2013-06-12 08:24:00,
2013-06-12 01:39:00,53.5,38.0,29.90,NE,41,0.0,1.0,57,0.00,,,0.00,weatherlink.com 1.10,2013-06-12 08:39:00,
2013-06-12 01:54:00,53.4,38.0,29.89,NE,41,0.0,1.0,57,0.00,,,0.00,weatherlink.com 1.10,2013-06-12 08:54:00,
2013-06-12 02:09:00,52.9,39.0,29.90,NE,41,0.0,0.0,59,0.00,,,0.00,weatherlink.com 1.10,2013-06-12 09:09:00,
2013-06-12 02:24:00,52.5,39.0,29.90,NE,41,0.0,0.0,61,0.00,,,0.00,weatherlink.com 1.10,2013-06-12 09:24:00,
2013-06-12 02:39:00,52.5,39.0,29.89,NE,41,0.0,1.0,61,0.00,,,0.00,weatherlink.com 1.10,2013-06-12 09:39:00,
2013-06-12 02:54:00,53.1,39.0,29.89,NE,41,0.0,0.0,60,0.00,,,0.00,weatherlink.com 1.10,2013-06-12 09:54:00,
2013-06-12 03:09:00,52.5,40.0,29.90,NE,41,0.0,0.0,63,0.00,,,0.00,weatherlink.com 1.10,2013-06-12 10:09:00,
2013-06-12 03:24:00,51.4,39.0,29.90,NE,41,0.0,0.0,64,0.00,,,0.00,weatherlink.com 1.10,2013-06-12 10:24:00,
2013-06-12 03:39:00,51.5,40.0,29.89,NE,41,0.0,0.0,66,0.00,,,0.00,weatherlink.com 1.10,2013-06-12 10:39:00,
2013-06-12 03:54:00,51.2,41.0,29.89,NE,41,0.0,0.0,67,0.00,,,0.00,weatherlink.com 1.10,2013-06-12 10:54:00,
2013-06-12 04:09:00,50.4,40.0,29.90,NE,41,0.0,0.0,68,0.00,,,0.00,weatherlink.com 1.10,2013-06-12 11:09:00,
2013-06-12 04:24:00,49.9,40.0,29.90,NE,41,0.0,1.0,69,0.00,,,0.00,weatherlink.com 1.10,2013-06-12 11:24:00,
2013-06-12 04:39:00,49.7,41.0,29.90,NE,41,0.0,0.0,72,0.00,,,0.00,weatherlink.com 1.10,2013-06-12 11:39:00,
2013-06-12 04:54:00,48.7,41.0,29.90,NE,41,0.0,1.0,74,0.00,,,0.00,weatherlink.com 1.10,2013-06-12 11:54:00,
2013-06-12 05:09:00,48.7,40.0,29.90,NE,36,0.0,3.0,73,0.00,,,0.00,weatherlink.com 1.10,2013-06-12 12:09:00,
2013-06-12 05:24:00,50.6,40.0,29.90,North,354,0.0,1.0,67,0.00,,,0.00,weatherlink.com 1.10,2013-06-12 12:24:00,
2013-06-12 05:40:00,51.1,40.0,29.91,NW,325,0.0,1.0,67,0.00,,,0.00,weatherlink.com 1.10,2013-06-12 12:40:00,
2013-06-12 05:55:00,50.5,40.0,29.91,NNW,327,0.0,1.0,68,0.00,,,0.00,weatherlink.com 1.10,2013-06-12 12:55:00,
2013-06-12 06:10:00,50.0,40.0,29.91,NNW,327,0.0,0.0,68,0.00,,,0.00,weatherlink.com 1.10,2013-06-12 13:10:00,
2013-06-12 06:25:00,50.6,40.0,29.92,NW,317,0.0,1.0,68,0.00,,,0.00,weatherlink.com 1.10,2013-06-12 13:25:00,
2013-06-12 06:40:00,50.3,42.0,29.93,NE,51,0.0,2.0,73,0.00,,,0.00,weatherlink.com 1.10,2013-06-12 13:40:00,
2013-06-12 06:55:00,50.4,42.0,29.93,NE,51,0.0,0.0,73,0.00,,,0.00,weatherlink.com 1.10,2013-06-12 13:55:00,
2013-06-12 07:10:00,51.2,44.0,29.93,NE,51,0.0,0.0,75,0.00,,,0.00,weatherlink.com 1.10,2013-06-12 14:10:00,
2013-06-12 07:25:00,52.0,44.0,29.94,NE,51,0.0,1.0,75,0.00,,,0.00,weatherlink.com 1.10,2013-06-12 14:25:00,
2013-06-12 07:40:00,52.7,44.0,29.94,ENE,75,1.0,2.0,73,0.00,,,0.00,weatherlink.com 1.10,2013-06-12 14:40:00,
2013-06-12 07:55:00,55.9,44.0,29.94,East,85,1.0,3.0,64,0.00,,,0.00,weatherlink.com 1.10,2013-06-12 14:55:00,
2013-06-12 08:10:00,59.0,44.0,29.94,East,79,1.0,3.0,57,0.00,,,0.00,weatherlink.com 1.10,2013-06-12 15:10:00,
2013-06-12 08:25:00,60.7,46.0,29.94,ENE,71,2.0,2.0,59,0.00,,,0.00,weatherlink.com 1.10,2013-06-12 15:25:00,
2013-06-12 08:40:00,62.5,45.0,29.95,ENE,59,0.0,3.0,53,0.00,,,0.00,weatherlink.com 1.10,2013-06-12 15:40:00,
2013-06-12 08:55:00,64.0,46.0,29.95,NNW,344,0.0,5.0,53,0.00,,,0.00,weatherlink.com 1.10,2013-06-12 15:55:00,
2013-06-12 09:10:00,64.3,43.0,29.95,West,270,1.0,3.0,47,0.00,,,0.00,weatherlink.com 1.10,2013-06-12 16:10:00,
2013-06-12 09:25:00,64.9,45.0,29.95,West,278,0.0,3.0,48,0.00,,,0.00,weatherlink.com 1.10,2013-06-12 16:25:00,
2013-06-12 09:40:00,65.9,44.0,29.95,WNW,292,0.0,4.0,45,0.00,,,0.00,weatherlink.com 1.10,2013-06-12 16:40:00,
2013-06-12 09:55:00,67.6,44.0,29.95,WNW,296,0.0,3.0,42,0.00,,,0.00,weatherlink.com 1.10,2013-06-12 16:55:00,
2013-06-12 10:10:00,68.5,44.0,29.95,WSW,242,1.0,5.0,41,0.00,,,0.00,weatherlink.com 1.10,2013-06-12 17:10:00,
2013-06-12 10:25:00,69.7,44.0,29.96,WSW,254,1.0,3.0,40,0.00,,,0.00,weatherlink.com 1.10,2013-06-12 17:25:00,
2013-06-12 10:40:00,72.0,45.0,29.96,West,260,0.0,3.0,38,0.00,,,0.00,weatherlink.com 1.10,2013-06-12 17:40:00,
2013-06-12 10:55:00,73.1,44.0,29.96,WNW,296,0.0,4.0,35,0.00,,,0.00,weatherlink.com 1.10,2013-06-12 17:55:00,
2013-06-12 11:11:00,75.7,45.0,29.96,NNE,24,0.0,3.0,33,0.00,,,0.00,weatherlink.com 1.10,2013-06-12 18:11:00,
2013-06-12 11:26:00,76.7,45.0,29.96,West,280,2.0,4.0,32,0.00,,,0.00,weatherlink.com 1.10,2013-06-12 18:26:00,
2013-06-12 11:41:00,77.7,44.0,29.95,NE,51,1.0,7.0,30,0.00,,,0.00,weatherlink.com 1.10,2013-06-12 18:41:00,
2013-06-12 11:56:00,79.2,41.0,29.95,North,11,4.0,6.0,26,0.00,,,0.00,weatherlink.com 1.10,2013-06-12 18:56:00,
2013-06-12 12:11:00,80.7,43.0,29.95,South,184,2.0,5.0,26,0.00,,,0.00,weatherlink.com 1.10,2013-06-12 19:11:00,
2013-06-12 12:26:00,81.5,40.0,29.95,NNE,22,0.0,5.0,23,0.00,,,0.00,weatherlink.com 1.10,2013-06-12 19:26:00,
2013-06-12 12:41:00,81.9,37.0,29.95,ESE,122,1.0,7.0,20,0.00,,,0.00,weatherlink.com 1.10,2013-06-12 19:41:00,
2013-06-12 12:56:00,84.1,39.0,29.95,SW,229,4.0,8.0,20,0.00,,,0.00,weatherlink.com 1.10,2013-06-12 19:56:00,
2013-06-12 13:11:00,84.0,38.0,29.94,West,271,2.0,6.0,19,0.00,,,0.00,weatherlink.com 1.10,2013-06-12 20:11:00,
2013-06-12 13:26:00,84.5,37.0,29.94,ENE,63,1.0,6.0,18,0.00,,,0.00,weatherlink.com 1.10,2013-06-12 20:26:00,
2013-06-12 13:41:00,84.9,34.0,29.94,SSE,157,4.0,7.0,16,0.00,,,0.00,weatherlink.com 1.10,2013-06-12 20:41:00,
2013-06-12 13:56:00,83.8,35.0,29.94,NW,319,3.0,12.0,17,0.00,,,0.00,weatherlink.com 1.10,2013-06-12 20:56:00,
2013-06-12 14:11:00,84.4,32.0,29.93,West,263,1.0,10.0,15,0.00,,,0.00,weatherlink.com 1.10,2013-06-12 21:11:00,
2013-06-12 14:26:00,84.9,34.0,29.93,NNW,338,2.0,9.0,16,0.00,,,0.00,weatherlink.com 1.10,2013-06-12 21:26:00,
2013-06-12 14:41:00,84.5,37.0,29.93,North,351,2.0,8.0,18,0.00,,,0.00,weatherlink.com 1.10,2013-06-12 21:41:00,
2013-06-12 14:56:00,84.4,39.0,29.93,SSW,209,1.0,11.0,20,0.00,,,0.00,weatherlink.com 1.10,2013-06-12 21:56:00,
2013-06-12 15:11:00,84.0,38.0,29.93,ENE,75,8.0,12.0,19,0.00,,,0.00,weatherlink.com 1.10,2013-06-12 22:11:00,
2013-06-12 15:26:00,84.8,38.0,29.92,ESE,111,1.0,6.0,19,0.00,,,0.00,weatherlink.com 1.10,2013-06-12 22:26:00,
2013-06-12 15:41:00,83.6,36.0,29.92,NE,53,2.0,9.0,18,0.00,,,0.00,weatherlink.com 1.10,2013-06-12 22:41:00,
2013-06-12 15:56:00,84.3,38.0,29.92,NNE,32,0.0,4.0,19,0.00,,,0.00,weatherlink.com 1.10,2013-06-12 22:56:00,
2013-06-12 16:11:00,83.8,40.0,29.92,SSW,204,1.0,7.0,21,0.00,,,0.00,weatherlink.com 1.10,2013-06-12 23:11:00,
2013-06-12 16:26:00,82.5,38.0,29.92,ESE,104,1.0,6.0,20,0.00,,,0.00,weatherlink.com 1.10,2013-06-12 23:26:00,
2013-06-12 16:41:00,81.8,38.0,29.92,NNE,18,10.0,10.0,21,0.00,,,0.00,weatherlink.com 1.10,2013-06-12 23:41:00,
2013-06-12 16:56:00,81.5,34.0,29.93,ENE,71,4.0,11.0,18,0.00,,,0.00,weatherlink.com 1.10,2013-06-12 23:56:00,
2013-06-12 17:11:00,80.6,36.0,29.92,ENE,71,2.0,8.0,20,0.00,,,0.00,weatherlink.com 1.10,2013-06-13 00:11:00,
2013-06-12 17:26:00,80.1,37.0,29.93,WSW,238,1.0,8.0,21,0.00,,,0.00,weatherlink.com 1.10,2013-06-13 00:26:00,
2013-06-12 17:41:00,79.3,36.0,29.92,NE,51,1.0,10.0,21,0.00,,,0.00,weatherlink.com 1.10,2013-06-13 00:41:00,
2013-06-12 17:56:00,78.4,35.0,29.92,NNE,28,1.0,8.0,21,0.00,,,0.00,weatherlink.com 1.10,2013-06-13 00:56:00,
2013-06-12 18:11:00,77.2,35.0,29.92,NNE,19,1.0,8.0,22,0.00,,,0.00,weatherlink.com 1.10,2013-06-13 01:11:00,
2013-06-12 18:26:00,76.7,36.0,29.92,NNW,339,0.0,8.0,23,0.00,,,0.00,weatherlink.com 1.10,2013-06-13 01:26:00,
2013-06-12 18:43:00,75.5,36.0,29.92,ENE,65,0.0,9.0,24,0.00,,,0.00,weatherlink.com 1.10,2013-06-13 01:43:00,
2013-06-12 18:56:00,74.1,37.0,29.93,ESE,109,0.0,6.0,26,0.00,,,0.00,weatherlink.com 1.10,2013-06-13 01:56:00,
2013-06-12 19:11:00,72.7,38.0,29.93,ESE,122,1.0,10.0,28,0.00,,,0.00,weatherlink.com 1.10,2013-06-13 02:11:00,
2013-06-12 19:26:00,70.4,37.0,29.94,WNW,283,0.0,7.0,30,0.00,,,0.00,weatherlink.com 1.10,2013-06-13 02:26:00,
2013-06-12 19:41:00,68.5,38.0,29.94,North,357,0.0,7.0,33,0.00,,,0.00,weatherlink.com 1.10,2013-06-13 02:41:00,
2013-06-12 19:56:00,66.8,37.0,29.95,ESE,105,4.0,6.0,34,0.00,,,0.00,weatherlink.com 1.10,2013-06-13 02:56:00,
2013-06-12 20:11:00,65.7,37.0,29.95,West,266,0.0,6.0,35,0.00,,,0.00,weatherlink.com 1.10,2013-06-13 03:11:00,
2013-06-12 20:26:00,64.3,38.0,29.95,WSW,242,2.0,4.0,38,0.00,,,0.00,weatherlink.com 1.10,2013-06-13 03:26:00,
2013-06-12 20:41:00,63.4,38.0,29.95,NNE,30,0.0,5.0,39,0.00,,,0.00,weatherlink.com 1.10,2013-06-13 03:41:00,
2013-06-12 20:56:00,62.3,38.0,29.95,NE,38,1.0,9.0,41,0.00,,,0.00,weatherlink.com 1.10,2013-06-13 03:56:00,
2013-06-12 21:11:00,61.4,39.0,29.95,NE,50,1.0,7.0,43,0.00,,,0.00,weatherlink.com 1.10,2013-06-13 04:11:00,
2013-06-12 21:26:00,60.8,39.0,29.96,East,90,3.0,8.0,44,0.00,,,0.00,weatherlink.com 1.10,2013-06-13 04:26:00,
2013-06-12 21:41:00,60.2,39.0,29.96,ENE,61,0.0,8.0,46,0.00,,,0.00,weatherlink.com 1.10,2013-06-13 04:41:00,
2013-06-12 21:56:00,59.7,40.0,29.97,East,98,3.0,9.0,48,0.00,,,0.00,weatherlink.com 1.10,2013-06-13 04:56:00,
2013-06-12 22:11:00,59.0,40.0,29.97,East,93,3.0,8.0,49,0.00,,,0.00,weatherlink.com 1.10,2013-06-13 05:11:00,
2013-06-12 22:26:00,58.7,40.0,29.97,East,94,2.0,4.0,50,0.00,,,0.00,weatherlink.com 1.10,2013-06-13 05:26:00,
2013-06-12 22:41:00,58.1,40.0,29.97,West,281,0.0,7.0,51,0.00,,,0.00,weatherlink.com 1.10,2013-06-13 05:41:00,
2013-06-12 22:56:00,57.4,40.0,29.97,NNW,331,0.0,2.0,52,0.00,,,0.00,weatherlink.com 1.10,2013-06-13 05:56:00,
2013-06-12 23:11:00,57.3,40.0,29.97,ENE,59,0.0,5.0,52,0.00,,,0.00,weatherlink.com 1.10,2013-06-13 06:11:00,
2013-06-12 23:26:00,57.0,39.0,29.97,NNW,338,0.0,3.0,52,0.00,,,0.00,weatherlink.com 1.10,2013-06-13 06:26:00,
2013-06-12 23:41:00,57.0,39.0,29.97,NNW,348,1.0,4.0,51,0.00,,,0.00,weatherlink.com 1.10,2013-06-13 06:41:00,
2013-06-12 23:56:00,57.1,38.0,29.97,ENE,74,0.0,6.0,50,0.00,,,0.00,weatherlink.com 1.10,2013-06-13 06:56:00,